Regional Weather Roundup
Issued by NWS

Home | Current Version | Previous Version | Graphics & Text | Print | Product List | Glossary On
Versions: 1 2 3 4 5 6 7 8 9 10 11 12 13 14 15 16 17 18 19 20 21 22 23 24 25 26 27 28 29 30 31 32 33 34 35 36 37 38 39 40 41 42 43 44 45 46 47 48 49 50
000
ASUS45 KBOU 271210
RWRCO

WEATHER ROUNDUP FOR COLORADO
NATIONAL WEATHER SERVICE DENVER/BOULDER CO
600 AM MDT SUN MAY 27 2018

NOTE: "FAIR" INDICATES FEW OR NO CLOUDS BELOW 12000 FEET WITH NO
SIGNIFICANT WEATHER AND/OR OBSTRUCTIONS TO VISIBILITY.

COZ001>005-013-030-031-271300-
...NORTHWEST COLORADO...

CITY           SKY/WX    TMP DP  RH WIND       PRES   REMARKS
CRAIG          FAIR      43  33  68 CALM      29.95R
HAYDEN         FAIR      48  33  56 E9        29.98R
MEEKER         FAIR      48  28  46 NE5       29.95R
RANGELY        FAIR      61  15  16 S6        29.87R
RABBIT EARS PA FAIR      45  21  39 SE3       30.21S
STEAMBOAT SPGS FAIR      43  33  66 E5        29.99S
WALDEN         FAIR      39  27  60 S5        30.09S
$$

COZ006>008-011-271300-
...WEST CENTRAL VALLEYS...

CITY           SKY/WX    TMP DP  RH WIND       PRES   REMARKS
GRAND JUNCTION FAIR      60  17  18 SE10      29.88R
MONTROSE       FAIR      50  18  28 SE10      29.98R
EAGLE          FAIR      42  23  46 E6        30.01R
RIFLE          FAIR      56  22  26 E6        29.92R
DELTA          FAIR      58  17  20 N9        29.93S
NUCLA          FAIR      52  12  20 SE7       30.02R
$$

COZ017>023-064>068-271300-
...SOUTHWEST COLORADO...

CITY           SKY/WX    TMP DP  RH WIND       PRES   REMARKS
DURANGO        FAIR      39  17  41 N7        30.03S
CORTEZ         FAIR      41  17  38 NE9       30.02R
PAGOSA SPRINGS FAIR      39  12  32 CALM      30.10S
TELLURIDE      FAIR      42   8  24 SE7       30.14S
WOLF CREEK PAS FAIR      34   9  35 S15       30.33S WCI  24
$$

COZ009-010-012-014-032>034-037-058>063-271300-
...CENTRAL COLORADO...

CITY           SKY/WX    TMP DP  RH WIND       PRES   REMARKS
ASPEN          FAIR      42  27  55 CALM      30.02R
BUENA VISTA    FAIR      44  20  39 CALM      30.09R
COPPER MTN     FAIR      46  16  29 SE8G16    30.31S
BERTHOUD PASS  FAIR      37  28  70 S14G24    30.36R
COTTONWOOD PAS FAIR      54  19  26 SE7       30.19R
GUNNISON       FAIR      42  27  55 NE6       30.07R
GRANBY         FAIR      37  26  65 CALM      30.11R
KREMMLING      FAIR      39  28  65 CALM      30.07R
LEADVILLE      FAIR      34  20  56 CALM      30.17R
MONARCH PASS   FAIR      41  14  33 MISG      30.41R
SALIDA         FAIR      52  23  31 W12       30.13R
SUNLIGHT       FAIR      37  12  35 SW10      30.23S
WILKERSON PASS FAIR      45  19  36 SW12      30.31R
$$

COZ069>075-271300-
...SAN LUIS VALLEY/SANGRE DE CRISTO MOUNTAINS...

CITY           SKY/WX    TMP DP  RH WIND       PRES   REMARKS
ALAMOSA        FAIR      42  27  55 SW7       30.06R
DEL NORTE      FAIR      43  19  38 SW7       30.10R
LA VETA PASS   FAIR      54  27  35 S24G46    30.31F
SAGUACHE       NOT AVBL
$$

COZ035-036-038>040-271300-
...NORTHERN COLORADO FRONT RANGE...

CITY           SKY/WX    TMP DP  RH WIND       PRES   REMARKS
DENVER INTL AP MOCLDY    60  27  28 S10       29.88R
AURORA         MOCLDY    64  24  22 S13       29.90R
FRONT RANGE AP FAIR      64  30  28 S10G17    29.89S
ERIE MUNI ARPT FAIR      52  41  67 CALM      29.92R
BOULDER MUN AP FAIR      61  36  39 SE3       29.87R
CENTENNIAL     MOCLDY    63  24  22 S10       29.92R
BROOMFIELD     MOCLDY    64  27  24 CALM      29.90R
FORT COLLINS   FAIR      60  49  66 E5        29.87R
LONGMONT       FAIR      56  43  61 CALM      29.88R
$$

COZ041-046-047-076>085-087-088-271300-
...PIKES PEAK/PALMER DIVIDE AND SOUTHERN FOOTHILLS...

CITY           SKY/WX    TMP DP  RH WIND       PRES   REMARKS
COLO. SPRINGS  MOCLDY    57  34  41 NE8       29.97R
A. F. ACADEMY  MOCLDY    52  30  43 N6        29.99R
SCHRIEVER AFB  NOT AVBL
CHEYENNE MTN   CLOUDY    63  21  20 NW3       29.95R
ELLICOTT         N/A    N/A N/A N/A S10       29.95R
FALCON         FAIR      56  30  37 CALM      30.02R
FORT CARSON    FAIR      59  26  29 N8        29.93R
LIMON          FAIR      55  54  96 SE5       29.94R
MONUMENT HILL  FAIR      52  28  40 S10       30.02R
CANON CITY     CLEAR     64  21  19 W12G20    29.89R
WALSENBURG     FAIR      63  27  25 SW6       29.95S
TRINIDAD       FAIR      63  34  33 VRB3      29.94F
$$

COZ042>045-048>051-090-091-271300-
...NORTHEAST COLORADO...

CITY           SKY/WX    TMP DP  RH WIND       PRES   REMARKS
GREELEY ARPT   FAIR      55  47  74 NW8       29.84S
AKRON          FAIR      67  58  72 S12G21    29.86R
BURLINGTON     FAIR      64  58  80 S17       29.90S
WRAY           FAIR      70  55  60 S23G36    29.83S
YUMA           FAIR      64  43  45 S14       29.84S
STERLING       FAIR      64  55  72 S6        29.81R
HOLYOKE        FAIR      73  59  60 S18G24    29.83S
FORT MORGAN    FAIR      65  51  62 W3        29.85R
$$

COZ086-089-092>099-271300-
...SOUTHEAST COLORADO...

CITY           SKY/WX    TMP DP  RH WIND       PRES   REMARKS
PUEBLO         FAIR      58  28  32 W9        29.86R
LA JUNTA       FAIR      74  57  55 SW8       29.87R
LAMAR          FAIR      72  60  66 MISG      29.83S
SPRINGFIELD      N/A     63  61  93 S5        29.92S
$$



USA.gov is the U.S. government's official web portal to all federal, state and local government web resources and services.